Chennai, India

3:28 PM IST on June 24, 2017 (GMT +0530)
Chennai International

Weather History for VOMM - October, 2012

Change the Weather History Date:

Tuesday, October 9, 2012

  Actual Average Record
Temperature  
Mean Temperature 88 °F -  
Max Temperature 97 °F 84 °F 97 °F (2012)
Min Temperature 78 °F 73 °F 75 °F (2002)
Cooling Degree Days 22    
Growing Degree Days 38 (Base 50)    
Moisture  
Dew Point 72 °F    
Average Humidity 65    
Maximum Humidity 89    
Minimum Humidity 31    
Precipitation  
Precipitation 0.00 in 0.50 in - ()
Sea Level Pressure  
Sea Level Pressure 29.74 in    
Wind  
Wind Speed 4 mph ()    
Max Wind Speed 51 mph    
Max Gust Speed -    
Visibility 3.1 miles    
Events      
Averages and records for this station are not official NWS values.
T = Trace of Precipitation, MM = Missing Value Source: Averaged Metar Reports

Daily Weather History Graph

Daily Weather History Graph

Search for Another Location

Airport or City:

Trip Planner

Search our weather history database for the weather conditions in past years. The results will help you decide how hot, cold, wet, or windy it might be!

Date:

Astronomy

Oct. 09, 2012 Rise Set
Actual Time 5:59 AM IST 5:53 PM IST
Civil Twilight 5:37 AM IST 6:15 PM IST
Nautical Twilight 5:12 AM IST 6:39 PM IST
Astronomical Twilight 4:48 AM IST 7:04 PM IST
Moon No Moon Rise 1:06 PM IST (10/9)
Length of Visible Light 12h 37m
Length of Day
11h 54m
Last Quarter, 41% of the Moon is Illuminated
Oct 9
Last Quarter
Oct 15
New
Oct 22
First Quarter
Oct 30
Full
Nov 7
Last Quarter

Hourly Weather History & Observations

Time (IST) Temp. Heat Index Dew Point Humidity Pressure Visibility Wind Dir Wind Speed Gust Speed Precip Events Conditions
12:10 AM 82.4 °F 90.9 °F 77.0 °F 84% 29.77 in 3.1 mi South 3.5 mph - N/A   Haze
12:40 AM 82.4 °F 90.9 °F 77.0 °F 84% 29.77 in 3.1 mi SSE 3.5 mph - N/A   Haze
1:10 AM 82.4 °F 90.9 °F 77.0 °F 84% 29.74 in 3.1 mi Calm Calm - N/A   Haze
1:40 AM 82.4 °F 90.9 °F 77.0 °F 84% 29.74 in 2.5 mi Calm Calm - N/A   Haze
2:10 AM 82.4 °F 90.9 °F 77.0 °F 84% 29.74 in 2.5 mi Calm Calm - N/A   Haze
2:30 AM 82 °F - 77 °F 82% 29.77 in 2 mi Calm Calm - -   Partly Cloudy
2:40 AM 82.4 °F 90.9 °F 77.0 °F 84% 29.74 in 2.5 mi Calm Calm - N/A   Haze
3:10 AM 82.4 °F 90.9 °F 77.0 °F 84% 29.74 in 2.5 mi West 2.3 mph - N/A   Haze
3:40 AM 80.6 °F 87.1 °F 77.0 °F 89% 29.74 in 2.5 mi West 3.5 mph - N/A   Haze
4:10 AM 80.6 °F 87.1 °F 77.0 °F 89% 29.74 in 2.2 mi West 3.5 mph - N/A   Haze
4:40 AM 80.6 °F 87.1 °F 77.0 °F 89% 29.74 in 1.9 mi Calm Calm - N/A   Haze
5:10 AM 80.6 °F 87.1 °F 77.0 °F 89% 29.74 in 1.9 mi Calm Calm - N/A   Haze
5:30 AM 81 °F - 77 °F 85% 29.78 in 2 mi Calm Calm - -   Haze
5:40 AM 80.6 °F 87.1 °F 77.0 °F 89% 29.74 in 1.9 mi WSW 2.3 mph - N/A   Haze
6:10 AM 80.6 °F 87.1 °F 77.0 °F 89% 29.77 in 1.6 mi Calm Calm - N/A   Haze
6:40 AM 80.6 °F 87.1 °F 77.0 °F 89% 29.77 in 1.2 mi Calm Calm - N/A   Scattered Clouds
7:10 AM 80.6 °F 87.1 °F 77.0 °F 89% 29.77 in 1.2 mi West 2.3 mph - N/A   Scattered Clouds
7:40 AM 82.4 °F 90.9 °F 77.0 °F 84% 29.80 in 1.6 mi WSW 3.5 mph - N/A   Scattered Clouds
8:10 AM 84.2 °F 92.3 °F 75.2 °F 74% 29.80 in 1.9 mi WSW 5.8 mph - N/A   Haze
8:30 AM 85 °F - 75 °F 65% 29.82 in 6 mi West 3.5 mph - -   Scattered Clouds
8:40 AM 86.0 °F 93.4 °F 73.4 °F 66% 29.80 in 3.1 mi WSW 5.8 mph - N/A   Haze
9:10 AM 87.8 °F 95.6 °F 73.4 °F 62% 29.80 in 3.1 mi WSW 5.8 mph - N/A   Haze
9:40 AM 89.6 °F 93.4 °F 68.0 °F 49% 29.80 in 3.1 mi WSW 8.1 mph - N/A   Haze
10:10 AM 91.4 °F 93.2 °F 64.4 °F 41% 29.77 in 3.7 mi WSW 6.9 mph - N/A   Unknown
10:40 AM 91.4 °F 94.0 °F 66.2 °F 43% 29.77 in 3.7 mi NW 4.6 mph - N/A   Partly Cloudy
11:10 AM 93.2 °F 96.2 °F 66.2 °F 41% 29.77 in 3.7 mi WSW 5.8 mph - N/A   Partly Cloudy
11:30 AM - - 65 °F % 29.78 in 0 mi NNE 50.6 mph - -   Scattered Clouds
11:40 AM 93.2 °F 96.2 °F 66.2 °F 41% 29.74 in 3.7 mi Variable 3.5 mph - N/A   Partly Cloudy
12:10 PM 93.2 °F 96.2 °F 66.2 °F 41% 29.71 in 3.7 mi NW 5.8 mph - N/A   Partly Cloudy
12:40 PM 91.4 °F 93.2 °F 64.4 °F 41% 29.71 in 4.3 mi Variable 3.5 mph - N/A   Partly Cloudy
1:10 PM 93.2 °F 94.9 °F 64.4 °F 38% 29.68 in 4.3 mi Variable 3.5 mph - N/A   Partly Cloudy
1:40 PM 93.2 °F 94.9 °F 64.4 °F 38% 29.68 in 4.3 mi WNW 6.9 mph - N/A   Scattered Clouds
2:10 PM 95.0 °F 97.0 °F 64.4 °F 36% 29.68 in 4.3 mi Variable 3.5 mph - N/A   Scattered Clouds
2:30 PM 95 °F - 67 °F 31% 29.70 in 6 mi ESE 4.6 mph - -   Partly Cloudy
2:40 PM 91.4 °F 94.0 °F 66.2 °F 43% 29.65 in 4.3 mi ESE 9.2 mph - N/A   Scattered Clouds
3:10 PM 91.4 °F 94.0 °F 66.2 °F 43% 29.65 in 3.7 mi SE 8.1 mph - N/A   Scattered Clouds
3:40 PM 91.4 °F 94.0 °F 66.2 °F 43% 29.65 in 3.7 mi East 9.2 mph - N/A   Partly Cloudy
4:10 PM 91.4 °F 94.0 °F 66.2 °F 43% 29.65 in 3.7 mi East 8.1 mph - N/A   Partly Cloudy
4:40 PM 91.4 °F 93.2 °F 64.4 °F 41% 29.65 in 3.7 mi ESE 9.2 mph - N/A   Partly Cloudy
5:10 PM 89.6 °F 91.1 °F 64.4 °F 43% 29.65 in 3.7 mi ESE 9.2 mph - N/A   Partly Cloudy
5:30 PM 89 °F - 66 °F 37% 29.70 in 6 mi ESE 3.5 mph - -   Scattered Clouds
5:40 PM 87.8 °F 89.4 °F 64.4 °F 46% 29.68 in 3.7 mi SE 10.4 mph - N/A   Partly Cloudy
6:10 PM 87.8 °F 90.4 °F 66.2 °F 49% 29.68 in 3.7 mi ESE 8.1 mph - N/A   Partly Cloudy
6:40 PM 86.0 °F 89.4 °F 68.0 °F 55% 29.68 in 3.7 mi ESE 8.1 mph - N/A   Partly Cloudy
7:10 PM 86.0 °F 91.8 °F 71.6 °F 62% 29.71 in 3.7 mi ESE 6.9 mph - N/A   Partly Cloudy
7:40 PM 86.0 °F 93.4 °F 73.4 °F 66% 29.74 in 3.7 mi SE 5.8 mph - N/A   Partly Cloudy
8:10 PM 86.0 °F 93.4 °F 73.4 °F 66% 29.74 in 3.7 mi ESE 4.6 mph - N/A   Partly Cloudy
8:30 PM 85 °F - 75 °F 64% 29.78 in 2 mi SW 3.5 mph - -   Scattered Clouds
8:40 PM 84.2 °F 90.9 °F 73.4 °F 70% 29.77 in 3.7 mi East 4.6 mph - N/A   Partly Cloudy
9:10 PM 82.4 °F 88.2 °F 73.4 °F 74% 29.77 in 3.7 mi East 3.5 mph - N/A   Partly Cloudy
9:40 PM 84.2 °F 92.3 °F 75.2 °F 74% 29.80 in 3.7 mi East 4.6 mph - N/A   Partly Cloudy
10:10 PM 82.4 °F 89.5 °F 75.2 °F 79% 29.80 in 3.7 mi Calm Calm - N/A   Partly Cloudy
11:10 PM 80.6 °F 86.2 °F 75.2 °F 84% 29.77 in 2.5 mi Calm Calm - N/A   Haze
11:30 PM 81 °F - 74 °F 75% 29.82 in 2 mi Calm Calm - -   Scattered Clouds
11:40 PM 80.6 °F 86.2 °F 75.2 °F 84% 29.77 in 2.5 mi Calm Calm - N/A   Haze